Change the Weather History Date:

Saturday, March 31, 2012

  Actual Average Record
Temperature  
Mean Temperature 36 °F -  
Max Temperature 46 °F 37 °F 71 °F (2006)
Min Temperature 26 °F 24 °F 19 °F (2003)
Degree Days  
Heating Degree Days 29    
Moisture  
Dew Point 15 °F    
Average Humidity 47    
Maximum Humidity 64    
Minimum Humidity 29    
Precipitation  
Precipitation 0.00 in - - ()
Sea Level Pressure  
Sea Level Pressure 30.01 in    
Wind  
Wind Speed 3 mph ()    
Max Wind Speed 10 mph    
Max Gust Speed 20 mph    
Averages and records for this station are not official NWS values.
T = Trace of Precipitation, MM = Missing Value Source: Averaged Metar Reports

Daily Weather History Graph

Daily Weather History Graph

Search for Another Location

Airport or City:

Trip Planner

Search our weather history database for the weather conditions in past years. The results will help you decide how hot, cold, wet, or windy it might be!

Date:

Astronomy

Mar. 31, 2012 Rise Set
Actual Time 6:37 AM EDT 7:23 PM EDT
Civil Twilight 6:07 AM EDT 7:53 PM EDT
Nautical Twilight 5:31 AM EDT 8:29 PM EDT
Astronomical Twilight 4:54 AM EDT 9:07 PM EDT
Moon 12:30 PM EDT (3/31) 2:51 AM EDT (3/31)
Length of Visible Light 13h 46m
Length of Day
12h 46m
First Quarter, 59% of the Moon is Illuminated
Mar 31
First Quarter
Apr 6
Full
Apr 13
Last Quarter
Apr 21
New
Apr 29
First Quarter

Hourly Weather History & Observations

Time (EDT) Temp. Windchill Dew Point Humidity Pressure Visibility Wind Dir Wind Speed Gust Speed Precip Events Conditions
12:00 AM 28.4 °F - 15.8 °F 59% 30.08 in 25.0 mi North 2.3 mph - N/A   Mostly Cloudy
1:00 AM 28.4 °F - 15.8 °F 59% 30.07 in 25.0 mi NNE 2.3 mph - N/A   Mostly Cloudy
2:00 AM 28.4 °F - 15.8 °F 59% 30.07 in 25.0 mi NNE 2.3 mph - N/A   Mostly Cloudy
3:00 AM 28.4 °F - 15.8 °F 59% 30.06 in 25.0 mi NNE 2.3 mph - N/A   Mostly Cloudy
4:00 AM 28.4 °F 24.6 °F 15.8 °F 59% 30.06 in 25.0 mi NNE 3.5 mph - N/A   Overcast
5:00 AM 26.6 °F 21.2 °F 15.8 °F 64% 30.07 in 25.0 mi NE 4.6 mph - N/A   Overcast
6:00 AM 26.6 °F - 14.0 °F 59% 30.07 in 25.0 mi Calm Calm - N/A   Mostly Cloudy
7:00 AM 26.6 °F 22.6 °F 15.8 °F 64% 30.07 in 45.0 mi NE 3.5 mph - N/A   Mostly Cloudy
8:00 AM 28.4 °F 23.3 °F 15.8 °F 59% 30.08 in 45.0 mi NE 4.6 mph - N/A   Mostly Cloudy
9:00 AM 32.0 °F 25.6 °F 15.8 °F 51% 30.08 in 45.0 mi NE 6.9 mph - N/A   Mostly Cloudy
10:00 AM 35.6 °F 28.6 °F 15.8 °F 44% 30.07 in 45.0 mi ENE 9.2 mph - N/A   Mostly Cloudy
11:00 AM 37.4 °F 32.1 °F 17.6 °F 45% 30.06 in 45.0 mi ENE 6.9 mph - N/A   Partly Cloudy
12:00 PM 39.2 °F 32.5 °F 15.8 °F 39% 30.04 in 45.0 mi East 10.4 mph - N/A   Partly Cloudy
1:00 PM 41.0 °F 36.4 °F 15.8 °F 36% 30.02 in 45.0 mi NE 6.9 mph 19.6 mph N/A   Partly Cloudy
2:00 PM 42.8 °F 38.6 °F 14.0 °F 31% 30.00 in 45.0 mi ENE 6.9 mph - N/A   Partly Cloudy
3:00 PM 44.6 °F - 14.0 °F 29% 29.97 in 45.0 mi NNE 2.3 mph - N/A   Partly Cloudy
4:00 PM 44.6 °F - 14.0 °F 29% 29.95 in 45.0 mi SSE 2.3 mph - N/A   Partly Cloudy
5:00 PM 46.4 °F - 15.8 °F 29% 29.93 in 45.0 mi South 2.3 mph - N/A   Partly Cloudy
6:00 PM 46.4 °F 43.5 °F 15.8 °F 29% 29.93 in 45.0 mi East 5.8 mph - N/A   Partly Cloudy
7:00 PM 42.8 °F 38.6 °F 14.0 °F 31% 29.93 in 45.0 mi SSE 6.9 mph - N/A   Partly Cloudy
8:00 PM 39.2 °F - 14.0 °F 36% 29.94 in 25.0 mi SW 2.3 mph - N/A   Partly Cloudy
9:00 PM 35.6 °F - 15.8 °F 44% 29.93 in 25.0 mi Calm Calm - N/A   Partly Cloudy
10:00 PM 33.8 °F - 15.8 °F 48% 29.93 in 25.0 mi Calm Calm - N/A   Clear
11:00 PM 30.2 °F - 15.8 °F 55% 29.93 in 25.0 mi SSW 2.3 mph - N/A   Clear